This is the latest recevied weather packets stored in our database for station/object K9TLD. If no packets are shown the sender has not sent any weather packets the latest 10 day(s).
| Time | Temp. | Humidity | Pressure | Rain* | Wind** | Luminosity | Snow |
|---|---|---|---|---|---|---|---|
| 1778245583 | 11.67° C | 56% | 1012 hPa | 0 mm | - | 260 W/m² | - |
| 1778245279 | 11.67° C | 58% | 1011.8 hPa | 0 mm | - | 246 W/m² | - |
| 1778244974 | 11.11° C | 58% | 1012 hPa | 0 mm | - | 232 W/m² | - |
| 1778244672 | 10.56° C | 59% | 1011.8 hPa | 0 mm | - | 221 W/m² | - |
| 1778244370 | 10.56° C | 60% | 1012 hPa | 0 mm | - | 210 W/m² | - |
| 1778244067 | 10° C | 61% | 1012 hPa | 0 mm | - | 188 W/m² | - |
| 1778243765 | 10° C | 62% | 1012 hPa | 0 mm | - | 182 W/m² | - |
| 1778243462 | 9.44° C | 62% | 1012 hPa | 0 mm | - | 169 W/m² | - |
| 1778243158 | 8.89° C | 64% | 1011.9 hPa | 0 mm | - | 157 W/m² | - |
| 1778242855 | 8.89° C | 63% | 1011.9 hPa | 0 mm | - | 146 W/m² | - |
| 1778242554 | 8.89° C | 64% | 1012 hPa | 0 mm | - | 132 W/m² | - |
| 1778242251 | 8.89° C | 65% | 1011.9 hPa | 0 mm | - | 121 W/m² | - |
| 1778241948 | 8.33° C | 64% | 1012 hPa | 0 mm | - | 110 W/m² | - |
| 1778241647 | 8.33° C | 65% | 1012.1 hPa | 0 mm | - | 99 W/m² | - |
| 1778241344 | 7.78° C | 65% | 1011.9 hPa | 0 mm | - | 89 W/m² | - |
| 1778241040 | 7.78° C | 67% | 1011.9 hPa | 0 mm | - | 80 W/m² | - |
| 1778240737 | 7.22° C | 69% | 1011.9 hPa | 0 mm | - | 71 W/m² | - |
| 1778240434 | 6.67° C | 70% | 1011.9 hPa | 0 mm | - | 62 W/m² | - |
| 1778240131 | 6.67° C | 70% | 1011.9 hPa | 0 mm | - | 54 W/m² | - |
| 1778239829 | 6.11° C | 72% | 1012 hPa | 0 mm | - | 46 W/m² | - |
| 1778239525 | 5.56° C | 73% | 1011.8 hPa | 0 mm | - | 39 W/m² | - |
| 1778239222 | 5.56° C | 74% | 1012 hPa | 0 mm | - | 32 W/m² | - |
| 1778238919 | 5° C | 76% | 1011.7 hPa | 0 mm | - | 27 W/m² | - |
| 1778238616 | 4.44° C | 78% | 1011.8 hPa | 0 mm | - | 22 W/m² | - |
| 1778238314 | 3.89° C | 80% | 1011.8 hPa | 0 mm | - | 17 W/m² | - |
* Rain latest hour (hover to see other rain measurements)
** Current wind speed in m/s (hover to see current wind gust speed)